GFSNW_con_3kmhel_024.txt.gz
Helicity
-154 76 138 141 134 105 126 194 219 95 121 86 27 34 77 66 39 45 48 65 45 22 42 52 49 54 106 90 82 65 94 80 53 42 61 67 63 33 29 33 25 47 45 13
-77 109 150 163 139 129 284 270 244 174 242 77 34 97 68 74 44 43 52 61 72 65 67 89 89 88 108 86 71 62 76 71 60 37 34 37 22 38 53 66 52 28 47 42
59 233 152 170 125 97 232 285 223 236 200 175 45 76 69 71 62 69 66 56 62 55 66 67 54 75 83 80 64 82 74 68 39 19 48 39 47 46 49 30 60 62 52 31
-5 147 128 164 125 98 277 320 236 219 137 92 81 67 68 62 64 100 69 58 24 34 45 55 51 51 57 60 59 64 72 33 29 29 40 39 49 14 28 38 29 79 38 36
69 113 129 153 112 109 263 263 268 265 112 125 85 96 97 62 84 92 65 42 53 42 36 24 40 50 41 45 56 55 61 27 35 17 47 65 53 -8 19 32 31 47 29 18
358 115 128 149 111 167 300 260 164 180 189 136 111 112 85 92 70 120 121 55 68 64 81 93 109 109 105 67 43 69 64 47 42 32 72 71 35 14 57 84 100 92 78 58
207 140 140 125 87 144 268 181 172 208 170 134 110 76 93 76 82 83 116 79 65 85 96 118 143 143 136 118 107 96 65 88 92 62 53 66 101 88 82 49 30 48 44 48
158 172 132 99 66 88 302 173 225 190 158 103 125 90 98 108 136 157 106 109 92 85 108 88 69 72 64 78 105 107 97 97 91 78 73 82 48 94 90 80 82 97 60 59
169 135 101 108 71 86 273 212 208 182 126 104 57 103 118 147 152 163 147 158 148 114 94 80 44 23 32 30 54 99 119 117 111 114 68 50 116 114 94 70 68 133 113 92
110 93 111 100 64 64 251 213 208 141 116 94 101 84 132 158 192 182 173 143 114 127 105 89 64 52 71 39 46 50 84 104 99 122 109 96 92 92 93 110 176 98 54 69
75 90 102 77 43 61 247 228 222 156 125 86 153 124 149 187 163 181 184 214 148 138 102 88 75 63 59 63 83 59 69 94 102 133 141 104 90 66 95 140 98 100 98 92
78 88 81 62 37 77 227 232 192 188 114 114 110 133 152 178 161 182 126 166 123 108 142 140 114 98 102 91 70 77 92 98 127 95 127 109 38 67 102 113 101 88 97 113
83 70 63 52 48 69 222 174 107 115 117 118 128 142 162 156 181 175 163 145 113 137 159 119 127 116 94 110 89 111 74 86 117 106 69 39 40 56 67 63 68 73 70 81
68 54 56 70 73 98 203 135 110 85 112 104 151 166 142 185 153 137 139 115 182 159 166 157 130 136 93 116 123 110 117 74 79 75 46 68 64 85 85 89 83 80 78 99
48 50 74 98 118 172 135 97 77 54 84 100 166 131 175 181 130 120 104 106 164 176 163 150 144 139 138 155 137 110 87 114 120 112 153 104 86 99 77 78 103 119 119 128
86 107 157 178 125 122 153 119 -21 49 71 82 141 143 172 202 178 199 225 207 181 169 164 154 147 138 131 148 127 157 162 153 155 114 81 65 65 102 146 152 158 166 189 221
172 167 233 219 251 215 173 103 72 59 51 58 124 130 162 206 194 190 201 200 172 168 154 164 153 147 147 160 152 171 144 130 127 159 125 107 156 135 140 163 194 232 278 308
171 173 166 161 140 124 159 54 112 95 72 86 88 115 137 168 151 156 171 157 158 185 157 157 170 180 187 162 200 179 158 156 171 166 138 145 152 173 202 207 204 232 256 285
115 118 120 233 243 149 118 211 237 163 102 91 102 90 93 119 120 129 129 147 144 135 162 165 146 180 191 206 192 197 197 163 127 131 144 153 185 184 185 229 265 273 241 220
174 198 193 174 156 235 197 140 126 132 144 137 101 123 113 112 111 124 113 127 128 127 153 151 207 257 246 221 173 133 121 138 61 101 126 125 151 153 155 138 109 103 88 85
191 238 185 161 194 138 125 114 133 146 131 127 124 121 102 121 112 126 139 128 132 113 139 155 182 207 210 182 141 81 81 123 174 176 139 99 69 66 84 77 84 94 79 67
89 88 112 125 141 131 137 161 138 127 106 117 115 132 142 150 147 148 148 166 151 156 176 192 213 230 229 193 134 75 76 69 86 93 94 101 115 107 105 86 69 54 42 48
191 194 172 173 193 154 135 101 128 134 120 124 142 167 159 151 166 172 155 144 190 186 188 219 241 237 198 134 85 110 122 127 118 125 118 102 99 98 95 94 94 77 78 64
166 165 137 119 113 127 126 135 110 112 122 145 164 178 160 158 177 170 161 176 167 162 181 197 173 136 125 122 157 148 117 113 128 123 113 118 117 114 95 104 88 81 90 80
91 107 116 127 119 140 122 123 115 136 134 148 163 165 145 150 151 162 178 168 182 179 163 143 138 136 143 150 128 109 115 110 106 110 120 114 112 120 121 109 105 95 81 80
136 149 132 134 155 170 177 175 162 141 150 156 146 149 147 177 174 163 175 185 181 153 160 145 150 156 119 106 112 105 102 104 119 126 121 113 120 120 106 97 99 80 78 72
173 203 137 117 150 142 142 141 139 114 116 141 123 140 154 139 164 186 172 190 152 111 104 72 56 72 85 95 104 109 124 140 129 128 135 130 113 103 113 123 104 83 78 73

GFSNW_con_3kmhel_027.txt.gz
Helicity
81 131 135 -34 120 148 156 198 248 107 94 225 150 7 -27 -19 16 49 63 99 25 31 27 14 14 8 15 64 76 29 69 38 18 -32 102 61 90 29 22 17 11 33 59 50
67 84 63 -25 161 153 250 246 249 139 104 169 90 28 -20 3 24 47 45 53 47 29 34 28 29 40 160 100 81 96 76 44 33 28 33 40 27 17 26 38 73 14 45 42
57 52 -0 -3 183 130 229 302 284 257 217 98 71 -5 -20 -29 72 78 38 42 54 40 54 72 66 79 100 101 111 130 112 44 48 16 57 70 34 -1 21 20 27 1 -7 13
42 39 26 13 219 95 205 260 245 255 263 120 73 33 25 -8 57 98 50 62 27 31 48 61 72 57 67 75 75 71 81 46 12 35 56 55 40 27 15 -8 11 -24 8 17
29 16 44 82 273 98 197 384 153 172 141 108 115 29 -23 -6 48 66 58 46 17 11 24 26 28 47 38 42 43 45 55 49 70 45 20 14 19 10 -9 -11 -1 -1 5 -14
24 -15 48 133 208 169 173 162 95 155 153 138 148 76 -9 35 57 128 95 17 42 30 93 114 104 139 115 88 38 29 46 60 40 31 51 38 -2 7 6 2 15 44 41 36
-41 28 -44 103 132 149 235 197 199 189 191 175 111 59 54 73 70 80 116 77 61 106 99 131 129 133 118 97 109 64 45 34 63 43 36 27 48 73 83 77 45 34 55 49
12 -0 37 353 92 86 217 68 245 154 282 126 105 77 95 96 122 84 106 172 127 42 73 94 73 61 59 52 73 63 69 74 71 62 35 48 25 83 71 80 91 181 162 154
9 -2 273 142 89 44 179 236 123 123 238 143 105 87 109 141 172 163 156 127 133 100 83 86 32 18 11 19 29 76 89 97 79 88 58 28 108 107 88 77 71 226 175 147
67 235 243 135 109 45 49 203 135 69 160 92 110 133 148 109 122 158 158 110 121 118 95 92 58 33 62 19 17 26 68 89 66 65 73 68 134 100 87 105 235 180 107 90
224 255 149 111 88 28 130 268 187 136 163 205 151 92 112 125 135 158 131 146 143 119 87 81 67 64 44 52 40 39 49 61 76 103 99 74 131 120 155 201 112 134 100 96
127 120 138 113 49 57 182 280 225 179 146 162 192 246 206 189 140 118 102 107 80 88 94 123 103 98 89 80 39 70 70 75 97 88 104 141 85 113 116 118 114 104 103 89
167 123 103 99 14 86 181 185 197 177 156 123 114 131 166 170 252 300 158 193 148 117 161 118 115 103 91 88 63 89 84 102 119 126 106 106 109 96 98 111 111 101 96 91
134 123 100 58 57 62 238 246 215 143 149 154 134 66 149 174 136 158 195 134 183 143 146 161 142 133 88 94 109 85 136 101 93 98 64 100 58 146 199 112 87 93 112 108
112 88 85 63 66 78 216 139 185 181 143 144 101 97 162 154 128 137 114 73 120 154 166 168 164 161 136 143 142 116 94 136 129 127 201 150 137 176 171 113 173 157 150 162
68 65 71 72 89 134 198 127 134 185 82 87 169 143 168 146 143 149 136 150 154 160 175 193 189 160 136 140 138 204 185 181 177 166 150 111 143 213 172 183 209 220 224 234
72 79 96 111 110 142 175 105 102 188 28 110 132 158 144 167 146 203 172 176 207 171 177 203 172 165 161 173 154 180 177 173 162 174 137 152 209 202 177 193 189 216 227 236
120 127 154 224 253 118 124 128 134 139 45 53 99 139 169 218 191 186 216 191 186 223 182 185 189 189 200 200 232 233 215 213 245 180 189 208 222 267 250 207 177 166 147 114
206 196 176 253 159 115 144 184 177 33 62 109 113 121 143 158 170 177 184 189 179 146 191 188 159 193 206 249 242 238 251 247 200 223 272 271 234 197 180 154 138 129 108 93
273 280 260 201 150 217 196 156 49 72 52 86 86 115 120 155 156 169 168 175 142 154 160 146 210 233 225 251 259 260 238 204 164 191 208 175 165 150 133 144 119 129 142 128
235 244 199 248 267 183 117 83 114 70 110 83 112 144 121 163 151 154 172 141 145 149 144 151 163 189 188 207 217 200 168 178 228 191 134 132 126 113 102 105 120 115 112 118
178 174 161 191 210 137 88 127 116 112 116 103 140 159 149 149 148 136 144 145 132 142 146 168 181 201 200 228 199 155 146 180 166 139 130 117 118 122 122 123 131 136 125 111
252 280 241 186 153 149 132 113 138 123 122 143 130 159 151 140 156 157 140 134 164 150 194 200 235 196 217 210 198 149 139 152 133 131 116 124 138 145 142 133 132 98 132 140
265 267 244 207 134 132 124 153 134 130 129 141 160 189 151 146 153 146 154 180 185 177 180 173 161 174 202 180 140 131 142 149 125 123 132 135 129 137 136 129 132 146 147 125
157 161 167 142 120 123 152 111 117 159 146 139 164 181 174 183 171 187 199 178 176 165 206 148 147 147 168 144 122 142 144 127 120 135 150 144 123 129 141 135 134 129 114 103
146 190 196 157 158 151 154 163 166 173 158 152 150 156 168 191 189 170 175 183 207 208 195 139 141 155 143 117 140 133 134 133 143 146 152 158 152 141 139 127 127 84 91 82
120 145 145 132 149 158 162 158 159 146 155 190 177 186 193 162 175 219 249 253 191 150 135 112 106 125 113 137 170 143 140 149 169 172 151 139 133 128 140 138 120 93 90 79

GFSNW_con_3kmhel_030.txt.gz
Helicity
197 201 150 131 180 97 151 297 318 73 182 266 196 38 -0 -32 -57 41 -20 -49 -31 -11 18 26 21 44 43 6 30 36 35 63 95 -4 27 67 90 62 21 61 39 66 49 31
164 178 175 154 151 64 267 425 285 115 156 226 227 139 8 -13 -0 37 -38 -26 63 29 47 44 31 33 140 163 64 76 69 60 16 30 16 15 28 22 38 54 103 44 54 44
100 101 113 101 105 -4 237 426 403 226 184 176 162 99 64 31 -47 -25 35 25 29 41 48 31 36 44 99 114 140 126 134 61 21 3 -3 63 52 3 16 31 96 51 -10 28
80 90 83 59 85 -29 253 406 333 282 233 201 146 95 97 49 -9 -37 15 16 14 49 71 38 73 46 113 94 128 115 115 52 43 44 48 46 117 70 15 -8 20 -3 28 16
98 90 83 78 88 -30 238 414 367 177 159 211 192 96 13 16 5 29 -20 39 39 15 29 33 29 22 108 57 61 69 76 79 92 85 71 86 20 49 34 25 16 -10 -3 -3
112 93 82 68 60 39 226 300 244 158 162 165 177 81 92 2 31 19 27 37 20 -6 62 144 166 150 61 37 59 43 60 65 69 57 100 95 15 3 -5 -2 6 31 44 48
76 74 91 49 96 44 245 265 260 162 153 166 132 103 65 13 -10 51 72 41 28 131 121 148 144 141 140 163 148 58 59 40 98 65 67 22 -1 78 81 87 64 62 78 144
42 76 59 29 48 65 168 89 172 109 136 162 111 77 42 46 12 71 99 148 135 86 129 113 98 103 119 100 95 96 77 91 94 73 43 35 41 64 77 70 98 211 264 255
62 75 70 14 -26 107 42 90 85 128 144 146 80 104 45 44 98 222 327 153 101 147 145 107 70 60 32 49 37 102 97 104 84 68 59 23 67 98 93 74 81 216 220 170
78 66 62 -12 30 114 -196 50 -4 122 141 90 57 104 80 62 202 217 225 255 229 241 130 99 68 49 40 59 39 44 86 112 86 91 62 55 118 127 73 87 186 172 140 104
65 38 31 24 47 -7 -143 -44 27 151 65 102 58 53 100 105 134 229 191 248 219 184 115 97 80 75 56 50 25 33 38 49 56 103 77 38 123 114 121 193 141 144 122 132
28 6 60 72 69 -148 -101 94 139 130 48 227 209 269 254 165 88 203 145 154 125 109 103 105 96 89 114 111 68 38 49 51 61 77 67 107 90 182 126 157 134 114 126 137
40 129 109 78 -65 -146 -19 74 57 21 197 286 257 240 216 199 174 232 197 199 98 114 139 109 97 87 92 102 69 104 74 130 103 138 71 90 113 136 127 232 244 147 115 122
58 226 247 150 -21 -25 21 130 370 297 212 293 255 177 180 214 214 208 192 166 251 200 195 146 123 107 70 90 85 115 122 161 76 101 87 145 215 381 401 271 233 236 188 237
228 197 97 62 62 11 36 312 347 214 156 165 194 131 175 144 147 139 183 156 181 196 180 170 153 171 155 161 156 133 108 129 151 134 273 194 283 309 278 311 268 241 224 282
92 70 70 176 135 98 199 314 168 203 101 100 172 171 175 147 140 109 113 124 137 138 212 216 224 177 159 155 156 217 267 232 260 264 230 210 276 262 252 273 249 235 249 249
129 141 140 117 105 168 268 202 179 258 163 91 130 153 221 199 266 334 217 204 236 230 255 247 193 211 211 176 162 226 210 206 207 207 197 333 306 325 314 178 176 196 214 222
126 110 97 111 147 84 172 127 191 204 147 125 131 160 210 241 239 285 370 278 239 293 221 223 225 233 234 228 270 258 221 269 261 226 300 450 446 321 248 216 182 209 207 195
92 106 137 218 121 162 122 143 256 150 161 217 162 151 246 218 253 243 241 227 241 190 223 231 205 227 247 285 245 261 297 286 310 378 321 284 269 252 238 227 218 206 154 134
57 119 259 207 187 109 152 125 132 156 57 65 130 157 186 234 229 240 229 221 181 202 209 198 232 246 241 252 287 271 266 277 267 262 244 238 244 216 203 247 253 233 214 176
350 313 266 166 197 195 144 118 146 114 195 95 110 98 110 199 191 192 182 158 165 156 157 165 177 184 170 222 272 277 268 303 230 194 197 193 213 212 227 182 170 163 157 143
233 218 306 295 165 132 127 105 146 121 228 150 143 133 136 137 152 133 165 166 159 150 140 186 184 175 166 200 226 228 237 209 232 214 222 232 216 184 175 169 157 142 114 128
309 275 239 206 223 107 98 75 125 117 79 129 147 176 149 145 147 154 135 161 174 132 171 164 208 170 200 242 265 233 195 178 202 216 226 208 203 203 166 165 160 129 150 150
198 177 166 140 171 107 103 104 89 77 77 142 157 186 156 155 166 144 153 161 148 148 140 150 150 180 223 228 205 255 229 237 206 185 169 146 157 163 152 141 141 154 153 131
261 190 168 160 135 114 93 80 117 147 122 129 137 144 149 169 152 161 157 154 140 126 172 137 134 167 203 199 218 205 206 217 179 162 161 150 107 122 141 150 139 126 111 108
179 146 128 164 167 172 171 193 175 171 156 155 161 154 154 171 170 181 198 184 204 220 178 154 173 192 188 172 190 141 128 165 190 156 148 151 167 138 130 118 124 76 83 85
128 168 215 173 203 220 192 166 159 161 117 141 157 193 222 183 210 247 259 272 212 166 163 124 104 137 136 177 203 221 212 183 162 141 149 150 130 107 137 154 144 114 93 74

GFSNW_con_3kmhel_033.txt.gz
Helicity
114 191 241 184 220 239 292 426 302 122 218 335 239 144 205 -5 33 16 54 17 28 25 -67 47 59 -14 33 65 94 97 61 87 91 -81 22 42 51 25 38 71 46 73 28 24
46 78 203 193 163 209 414 454 347 178 206 218 156 242 139 12 36 144 170 36 6 44 -49 34 51 59 179 193 172 117 131 117 89 55 71 54 20 47 39 73 118 66 80 22
56 69 93 133 123 178 375 549 413 272 194 179 137 208 86 19 -47 130 185 75 59 32 37 48 76 103 130 219 185 161 117 112 86 62 47 32 21 36 15 85 123 70 43 28
49 64 82 79 76 126 291 571 385 330 233 165 190 144 90 38 22 40 71 35 29 62 37 76 105 157 138 127 119 128 126 109 116 63 19 29 23 67 71 30 52 120 37 26
52 44 54 71 68 74 250 510 403 364 231 197 279 196 60 60 34 124 115 44 -3 122 76 63 99 130 123 92 105 116 142 129 128 93 88 86 119 89 60 87 49 26 28 61
58 78 50 125 82 111 242 343 365 299 204 134 249 217 93 76 57 101 84 77 42 70 93 80 119 97 110 89 85 100 115 128 145 87 102 76 44 32 39 39 32 17 19 63
60 106 83 96 102 104 193 285 362 297 217 157 120 182 115 74 67 140 74 67 47 147 207 310 360 348 261 213 185 65 111 110 112 77 104 90 24 54 54 74 125 146 211 173
46 83 64 117 97 133 187 137 382 255 179 139 119 107 117 109 29 70 49 102 73 160 258 210 195 217 191 149 146 153 150 137 120 103 93 61 46 96 61 69 140 147 186 237
30 58 53 115 112 147 129 67 147 272 168 83 107 103 130 66 77 78 188 308 290 310 179 227 162 114 80 103 161 254 232 168 131 111 86 40 40 72 102 103 128 143 151 155
98 115 72 129 123 111 146 -79 124 204 69 97 104 139 82 30 81 128 285 242 299 337 277 245 171 114 64 109 95 87 155 195 135 130 87 63 61 88 83 115 91 187 162 122
89 80 80 100 91 41 103 -73 43 250 182 98 89 113 52 60 126 241 203 379 253 302 295 229 178 99 83 101 79 57 78 103 94 130 95 43 89 127 105 109 208 163 160 161
35 53 78 94 70 66 77 27 -7 130 117 121 185 54 219 126 123 301 301 226 166 200 284 233 169 137 131 117 83 68 79 68 59 65 50 32 110 126 142 186 220 220 249 240
49 63 92 72 77 158 -44 -164 -84 127 128 25 158 96 251 431 335 279 257 304 136 266 237 217 166 129 100 116 100 113 145 99 104 109 83 99 230 438 431 404 338 318 275 241
60 51 56 29 78 -13 -109 -122 -7 172 110 330 107 188 359 491 325 230 150 196 178 224 236 212 156 134 84 76 70 124 117 160 123 113 178 331 410 422 415 472 462 383 340 310
39 23 29 20 116 14 -196 -153 -150 13 43 83 380 399 438 370 295 208 180 212 312 291 248 186 152 144 149 148 155 148 159 166 182 157 203 285 319 368 369 402 373 329 277 315
-13 21 10 80 111 -33 -168 0 -10 -8 -14 119 292 323 295 239 174 216 168 157 205 195 206 214 205 194 164 165 174 217 278 317 260 227 297 369 388 356 320 323 288 297 304 271
70 71 127 179 -111 -41 89 -11 37 78 59 84 199 302 246 288 274 329 327 278 271 224 254 239 210 235 218 201 229 250 291 293 313 335 353 353 298 288 269 278 276 299 302 293
123 214 159 57 -66 -10 19 207 188 130 83 130 188 255 228 276 265 240 315 333 335 356 282 309 279 294 288 252 326 288 296 307 339 386 421 482 395 309 270 256 250 297 285 262
150 16 -6 129 76 91 76 119 209 142 79 119 127 180 222 223 258 338 338 298 259 247 248 279 242 288 275 274 259 333 250 269 369 404 380 364 336 305 290 274 267 267 244 246
64 152 220 124 75 48 103 70 135 125 128 137 153 147 125 216 241 253 260 265 223 227 232 245 250 268 309 411 352 363 338 338 334 344 298 306 284 256 334 343 324 300 251 208
278 207 288 226 142 259 141 144 120 116 136 102 137 138 141 208 208 236 208 203 229 222 235 242 232 227 220 259 294 301 304 287 298 266 259 231 346 356 322 296 266 221 195 189
177 144 197 330 149 116 80 99 75 61 107 90 203 178 157 156 188 167 196 166 172 169 157 218 184 172 169 233 227 259 284 296 284 274 309 371 339 298 278 240 201 198 177 165
176 218 152 96 197 110 109 111 89 82 77 146 146 130 98 99 126 129 130 159 187 121 150 157 160 138 159 175 228 275 263 278 389 412 368 345 324 273 228 213 168 186 199 167
142 116 113 61 117 146 41 102 101 94 90 132 176 155 105 100 129 117 156 163 170 187 189 154 135 132 166 211 274 286 286 344 270 266 267 263 245 233 221 212 177 156 156 144
155 138 106 109 55 99 116 82 91 111 88 133 152 146 105 149 134 144 145 159 165 165 154 135 118 123 172 296 310 343 375 293 262 216 188 164 162 184 189 161 152 142 116 107
138 116 107 147 133 134 158 168 136 176 132 98 105 118 143 171 179 200 225 203 198 169 155 130 140 186 271 287 288 259 221 195 154 146 143 147 144 145 134 121 108 83 76 83
147 229 206 205 221 222 195 190 175 164 160 198 197 202 188 171 186 222 214 205 188 158 162 144 167 233 244 179 130 190 174 154 155 165 182 175 141 117 120 139 97 73 106 92

GFSNW_con_3kmhel_039.txt.gz
Helicity
73 105 154 113 165 151 273 418 391 183 314 313 253 169 257 251 52 69 101 146 168 82 33 66 10 -10 -23 55 116 99 89 106 65 40 56 59 113 67 80 115 79 88 73 54
40 68 189 132 77 141 377 488 468 139 268 324 175 223 186 192 96 49 14 114 139 158 50 55 75 36 16 35 97 91 103 120 134 101 72 63 43 62 92 121 120 63 102 50
68 236 218 144 114 99 377 612 557 405 291 276 199 213 178 173 79 78 134 63 117 119 132 49 72 33 66 56 41 101 188 145 116 113 78 89 88 45 85 131 117 102 105 69
125 235 230 148 102 112 337 574 492 608 398 153 288 185 189 148 109 62 126 36 72 149 175 148 100 130 113 114 113 140 132 114 114 90 91 109 94 96 123 144 119 126 17 105
140 149 146 156 102 84 277 596 573 518 516 304 267 255 127 90 94 106 101 70 -8 104 139 134 113 118 164 164 185 175 206 159 153 153 165 154 100 90 107 137 140 107 93 71
168 175 147 122 120 101 265 358 399 419 396 193 262 188 227 144 116 75 110 84 31 124 116 122 136 71 106 131 202 215 207 205 179 115 168 163 134 110 127 142 151 130 160 92
132 131 117 90 63 39 298 325 396 450 260 285 158 183 229 151 102 149 61 87 90 34 17 32 156 201 212 248 261 194 212 225 214 133 190 103 115 163 124 142 177 168 175 193
174 156 103 59 48 -70 113 383 278 398 257 179 157 159 121 185 71 72 69 107 90 73 99 187 215 332 253 259 283 232 219 237 207 191 178 144 116 102 142 147 138 171 230 248
176 154 115 62 50 -96 -74 204 268 139 347 126 203 70 92 125 82 79 57 58 -7 127 133 219 225 264 236 250 293 239 296 244 204 215 194 135 67 72 139 120 139 109 139 135
168 120 106 51 14 -172 81 71 320 172 261 234 161 177 92 102 88 103 86 96 77 84 196 215 220 259 219 245 212 245 303 255 214 259 203 185 110 78 140 173 57 186 159 143
95 82 64 36 -26 -80 181 70 261 91 86 239 209 230 177 163 109 121 93 112 149 143 213 158 194 215 250 265 196 219 246 243 228 288 255 138 141 196 168 94 179 159 154 168
30 27 12 -17 -23 82 101 41 212 101 186 192 86 163 191 74 119 164 157 149 90 164 207 175 180 239 307 281 221 226 201 193 198 180 128 147 99 79 138 111 118 115 156 146
1 -11 -20 -3 38 77 99 160 43 112 82 74 22 77 90 60 76 116 141 169 166 195 170 188 183 230 234 258 230 250 217 205 221 211 153 128 119 162 167 167 180 187 195 221
7 11 46 67 72 40 91 160 57 52 12 115 238 97 118 142 88 82 113 91 109 202 224 192 194 247 211 212 182 244 242 275 250 228 175 197 188 203 260 314 320 362 357 301
-2 44 61 89 51 27 87 74 93 70 55 253 137 130 180 107 89 63 113 145 184 260 237 210 207 207 251 218 219 253 263 259 263 164 191 214 211 264 301 376 361 351 379 391
1 21 36 58 21 102 175 101 48 56 41 79 84 73 231 134 128 98 122 171 166 195 154 153 208 299 258 233 116 277 262 233 208 173 229 275 413 421 378 404 378 362 365 350
24 114 74 125 151 195 160 -54 -137 41 -26 17 20 130 122 62 156 211 258 286 239 192 212 258 246 294 320 315 205 207 255 268 278 351 531 425 393 347 410 420 408 418 437 416
48 100 86 61 42 91 125 112 -77 169 68 8 -19 46 51 92 152 205 249 286 307 276 234 297 295 288 348 210 175 188 268 325 365 366 298 367 461 484 460 433 440 491 460 419
42 36 50 140 118 48 142 76 68 159 134 16 -43 -39 -13 29 106 154 250 293 308 232 124 286 328 369 307 271 211 203 182 261 370 413 382 421 484 460 431 446 432 443 388 382
54 113 131 65 -3 -9 7 200 156 105 95 112 82 49 20 61 119 153 465 371 262 168 81 187 257 209 145 123 170 230 280 310 376 484 465 458 459 403 361 364 359 366 339 340
49 -3 168 131 131 205 31 91 49 53 59 96 95 119 72 84 62 246 239 216 113 150 163 165 191 184 208 271 284 281 242 247 281 334 343 314 336 311 348 381 383 349 314 333
-82 101 131 175 180 98 28 86 46 55 102 116 154 196 159 96 82 106 172 166 162 118 146 171 161 168 205 262 296 340 342 326 300 248 238 224 261 301 353 351 334 341 340 314
144 106 102 153 206 31 42 116 123 32 90 95 133 113 101 93 110 97 111 132 144 123 143 139 129 138 203 260 327 357 315 312 323 303 290 317 328 331 311 298 310 323 309 236
105 46 46 44 85 138 150 132 96 61 81 157 126 133 120 142 140 117 127 167 168 189 199 219 171 124 183 213 233 289 277 284 293 305 297 324 335 341 329 334 265 242 215 154
13 35 43 21 96 57 111 91 78 96 113 120 102 106 102 173 139 163 143 140 152 151 150 167 148 217 229 227 273 312 311 305 293 260 309 324 314 317 313 233 201 189 182 167
5 18 27 70 73 108 108 98 82 78 94 119 114 102 97 126 127 127 159 150 154 145 126 79 100 157 195 218 232 258 279 278 243 238 239 243 231 203 193 169 161 159 152 158
75 88 143 76 67 101 104 104 96 69 54 105 111 123 136 122 149 195 206 219 185 154 123 109 121 162 180 203 221 212 192 184 187 210 199 184 194 209 208 191 147 159 166 172